Location: Unspecified
(0.0000°N, 0.0000°E)
Time: 04:19:41
(UTC+00:00)

deb Delta 104 - Pass Details

Date: 10 March 2026
Orbit: 1430 x 1579 km, 102.3° (Epoch: 17 April)

Event Time Altitude Azimuth Distance (km) Brightness Sun altitude
Rises 18:25:44 0° 195° (SSW) 4,515 ? -3.9°
Reaches altitude 10° 18:29:34 10° 212° (SSW) 3,535 ? -4.8°
Maximum altitude 18:34:44 18° 252° (WSW) 2,930 ? -6.1°
Drops below altitude 10° 18:39:58 10° 293° (WNW) 3,554 ? -7.4°
Sets 18:43:54 0° 310° (NW) 4,548 ? -8.4°
